Regional Weather Roundup
Issued by NWS

Home | Current Version | Previous Version | Graphics & Text | Print | Product List | Glossary On
Versions: 1 2 3 4 5 6 7 8 9 10 11 12 13 14 15 16 17 18 19 20 21 22 23 24 25 26 27 28 29 30 31 32 33 34 35 36 37 38 39 40 41 42 43 44 45 46 47 48 49 50
000
ASUS43 KOAX 302010
RWRNE

WEATHER ROUNDUP FOR NEBRASKA
NATIONAL WEATHER SERVICE OMAHA NE
300 PM CDT SUN APR 30 2017

NOTES: SATELLITE DATA IS BEING USED TO AUGMENT CLOUD COVER ABOVE
       12000 FEET.
       "FAIR" INDICATES FEW OR NO CLOUDS BELOW 12,000 FEET WITH NO
       SIGNIFICANT WEATHER AND/OR OBSTRUCTIONS TO VISIBILITY.

  * THESE STATIONS DO NOT REPORT WEATHER SUCH AS RAIN...SNOW OR FOG.

NEZ001>004-019>022-054>056-302100-
NEBRASKA PANHANDLE

CITY           SKY/WX    TMP DP  RH WIND       PRES   REMARKS
SCOTTSBLUFF    SUNNY     54  23  30 N24       29.89F
ALLIANCE       CLOUDY    53  22  29 N28       29.85F
CHADRON        SUNNY     56  28  34 N18G25    29.90F
KIMBALL        SUNNY     52  23  32 N18G31    29.88F
SIDNEY         CLOUDY    52  21  29 N28G37    29.85F
$$

NEZ057>060-069>072-079>082-302100-
SOUTHWEST NEBRASKA

CITY           SKY/WX    TMP DP  RH WIND       PRES   REMARKS
NORTH PLATTE   LGT RAIN  40  25  55 N31G51    29.78R WCI  28
IMPERIAL       CLOUDY    45  19  35 N26G40    29.78F
LEXINGTON      LGT SNOW  34  32  93 N24G30    29.71F VSB 3/4 WCI  21
MCCOOK         HVY SNOW  33  32  96 N40G46    29.70F VSB 1/4 WCI  17
OGALLALA       CLOUDY    50  21  31 N28G36    29.80F
$$

NEZ005>010-023>029-035>040-094-302100-
NORTH CENTRAL NEBRASKA

CITY           SKY/WX    TMP DP  RH WIND       PRES   REMARKS
VALENTINE      CLOUDY    51  19  28 N18G32    29.83F
AINSWORTH      CLOUDY    45  20  38 N21G31    29.81F
BROKEN BOW     FOG       33  33 100 N31G39    29.71R THUNDER VSB 3/4
O`NEILL        LGT SNOW  34  32  94 N17G23    29.76F WCI  23
ORD            RAIN      34  33  96 N20G32    29.69R FOG     WCI  23
THEDFORD       CLOUDY    46  18  32 N26G41    29.79F
$$

NEZ041-046>049-061>064-073>077-083>087-302100-
SOUTH CENTRAL NEBRASKA

CITY           SKY/WX    TMP DP  RH WIND       PRES   REMARKS
GRAND ISLAND   LGT SNOW  33  33 100 N17       29.65R FOG     WCI  22
AURORA         LGT RAIN  37  37  99 N24G30    29.62S WCI  25
HASTINGS       CLOUDY    36  34  92 N26       29.60F WCI  24
HEBRON         LGT RAIN  40  40  97 N17G28    29.53S WCI  32
HOLDREGE       LGT SNOW  33  32  94 N21G28    29.64S WCI  22
KEARNEY *      CLOUDY    34  28  80 N25G33    29.63F VSB 1   WCI  21
YORK           MIX PCPN  37  37 100 N36G44    29.55F WCI  24
$$

NEZ011>018-030>034-042>045-302100-
NORTHEAST NEBRASKA

CITY           SKY/WX    TMP DP  RH WIND       PRES   REMARKS
NORFOLK        RAIN      38  36  92 N18G29    29.65R FOG     WCI  28
ALBION         LGT SNOW  38  35  89 NE12      29.68R WCI  30
BLAIR          LGT RAIN  42  41  96 NE12      29.60S
FREMONT        LGT RAIN  40  40 100 N7        29.65R
TEKAMAH        RAIN      41  39  93 N15       29.64R FOG
WAYNE          RAIN      39  38  99 NE29G38   29.65F WCI  27
$$

NEZ050>053-065>068-078-088>093-302100-
SOUTHEAST NEBRASKA

CITY           SKY/WX    TMP DP  RH WIND       PRES   REMARKS
LINCOLN        RAIN      41  39  93 N24G36    29.55F FOG
OMAHA EPPLEY   LGT RAIN  44  40  85 NE8       29.61R FOG
BEATRICE       CLOUDY    44  42  95 NE16      29.50S
FALLS CITY     CLOUDY    50  49  96 E8        29.47F
NEBRASKA CITY  RAIN      45  45 100 NE14      29.53F
PLATTSMOUTH    LGT RAIN  44  42  91 N6        29.57S
$$

NEZ044-045-051>053-067-302100-
OMAHA AREA

CITY           SKY/WX    TMP DP  RH WIND       PRES   REMARKS
OMAHA EPPLEY   LGT RAIN  44  40  85 NE8       29.61R FOG
BLAIR          LGT RAIN  42  41  96 NE12      29.60S
FREMONT        LGT RAIN  40  40 100 N7        29.65R
MILLARD        RAIN      45  43  94 N3        29.61R
OFFUTT AFB     HVY RAIN  44  42  94 N5        29.58R FOG
PLATTSMOUTH    LGT RAIN  44  42  91 N6        29.57S
WAHOO          RAIN      40  39  95 N15       29.62S WCI  32
$$



USA.gov is the U.S. government's official web portal to all federal, state and local government web resources and services.